Location: Miles
(41.4492°N, 81.6087°W)
Time: 07:56:51
(UTC+00:00)

Transit 2A - Pass Details

Date: 22 September 2024
Orbit: 590 x 960 km, 66.7° (Epoch: 09 October)

Event Time Altitude Azimuth Distance (km) Brightness Sun altitude
Rises 07:32:13 0° 327° (NNW) 3,616 9.6 -38.7°
Enters shadow 07:33:06 - 327° (NNW) 3,286 9.4 -38.6°
Reaches altitude 10° 07:34:51 10° 325° (NW) 2,640 - -38.4°
Maximum altitude 07:40:58 67° 245° (WSW) 950 - -37.6°
Drops below altitude 10° 07:46:33 10° 163° (SSE) 2,413 - -36.8°
Sets 07:48:52 0° 161° (SSE) 3,285 - -36.5°
